Glens Falls, NY

4:03 PM EST on December 08, 2019 (GMT -0500)
Bennett Memorial

Weather History for KGFL - October, 2019

Change the Weather History Date:

Friday, October 4, 2019

  Actual Average Record
Temperature  
Mean Temperature 45 °F 51 °F  
Max Temperature 56 °F 63 °F 80 °F (1951)
Min Temperature 34 °F 39 °F 27 °F (1948)
Degree Days  
Heating Degree Days 20 14  
Month to date heating degree days 48 54  
Since 1 July heating degree days 270 339  
Cooling Degree Days 0 0  
Month to date cooling degree days 0 0  
Year to date cooling degree days 416 351  
Moisture  
Dew Point 41 °F    
Average Humidity 72    
Maximum Humidity 100    
Minimum Humidity 43    
Precipitation  
Precipitation 0.01 in 0.12 in 2.58 in (1927)
Month to date precipitation 0.39 0.47  
Year to date precipitation 31.24 29.66  
Sea Level Pressure  
Sea Level Pressure 30.09 in    
Wind  
Wind Speed 9 mph (NW)    
Max Wind Speed 22 mph    
Max Gust Speed 29 mph    
Visibility 9 miles    
Events Rain    
T = Trace of Precipitation, MM = Missing Value Source: NWS Daily Summary

Daily Weather History Graph

Daily Weather History Graph

Search for Another Location

Airport or City:

Astronomy

Oct. 04, 2019 Rise Set
Actual Time 6:55 AM EDT 6:30 PM EDT
Civil Twilight 6:26 AM EDT 6:59 PM EDT
Nautical Twilight 5:53 AM EDT 7:32 PM EDT
Astronomical Twilight 5:20 AM EDT 8:05 PM EDT
Moon 1:33 PM EDT (10/4) 10:47 PM EDT (10/4)
Length of Visible Light 12h 32m
Length of Day
11h 35m
Waxing Crescent, 39% of the Moon is Illuminated
Oct 4
Waxing Crescent
Oct 5
First Quarter
Oct 13
Full
Oct 21
Last Quarter
Oct 27
New

Hourly Weather History & Observations

Time (EDT) Temp. Windchill Dew Point Humidity Pressure Visibility Wind Dir Wind Speed Gust Speed Precip Events Conditions
12:12 AM 46.9 °F - 46.0 °F 97% 29.93 in 5.0 mi South 4.6 mph - 0.00 in   Overcast
12:53 AM 48.0 °F - 46.9 °F 96% 29.93 in 4.0 mi Calm Calm - 0.01 in Rain Light Rain
1:53 AM 48.9 °F - 46.9 °F 93% 29.92 in 6.0 mi SSW 5.8 mph - 0.01 in   Overcast
2:11 AM 48.9 °F - 48.0 °F 97% 29.91 in 6.0 mi SW 6.9 mph - N/A   Overcast
2:48 AM 50.0 °F - 48.2 °F 94% 29.90 in 6.0 mi SW 5.8 mph - N/A   Overcast
2:53 AM 50.0 °F - 48.0 °F 93% 29.91 in 8.0 mi SW 5.8 mph - N/A   Overcast
3:07 AM 50.0 °F - 48.0 °F 93% 29.90 in 10.0 mi SW 3.5 mph - N/A   Overcast
3:53 AM 50.0 °F - 48.0 °F 93% 29.91 in 10.0 mi SW 5.8 mph - N/A   Overcast
4:19 AM 50.0 °F - 48.0 °F 93% 29.90 in 10.0 mi WSW 4.6 mph - N/A   Overcast
4:53 AM 48.9 °F - 48.0 °F 97% 29.91 in 10.0 mi Calm Calm - N/A   Mostly Cloudy
5:16 AM 46.9 °F - 46.0 °F 97% 29.91 in 10.0 mi Calm Calm - N/A   Mostly Cloudy
5:36 AM 48.9 °F - 46.9 °F 93% 29.92 in 10.0 mi NE 3.5 mph - N/A   Overcast
5:45 AM 50.0 °F - 48.0 °F 93% 29.92 in 10.0 mi Calm Calm - N/A   Overcast
5:53 AM 48.9 °F - 48.0 °F 97% 29.94 in 10.0 mi Calm Calm - N/A   Overcast
6:12 AM 48.9 °F - 48.0 °F 97% 29.94 in 10.0 mi Calm Calm - N/A   Overcast
6:53 AM 51.1 °F - 46.0 °F 83% 29.98 in 10.0 mi North 9.2 mph - N/A   Overcast
7:53 AM 50.0 °F - 43.0 °F 77% 30.02 in 10.0 mi NNW 16.1 mph - N/A   Overcast
8:53 AM 48.9 °F - 41.0 °F 74% 30.07 in 10.0 mi NNW 16.1 mph - N/A   Overcast
9:16 AM 48.0 °F - 41.0 °F 77% 30.08 in 10.0 mi NNW 17.3 mph 24.2 mph N/A   Overcast
9:42 AM 48.9 °F - 42.1 °F 77% 30.10 in 10.0 mi North - - N/A   Mostly Cloudy
9:53 AM 48.9 °F - 39.9 °F 71% 30.12 in 10.0 mi North - - N/A   Scattered Clouds
10:53 AM 52.0 °F - 39.0 °F 61% 30.15 in 10.0 mi North 18.4 mph 25.3 mph N/A   Overcast
11:53 AM 51.1 °F - 37.9 °F 61% 30.17 in 10.0 mi North 15.0 mph 21.9 mph N/A   Mostly Cloudy
12:11 PM 51.1 °F - 36.0 °F 56% 30.17 in 10.0 mi North 16.1 mph - N/A   Overcast
12:53 PM 51.1 °F - 37.0 °F 59% 30.19 in 10.0 mi NNE 11.5 mph - N/A   Mostly Cloudy
1:53 PM 53.1 °F - 35.1 °F 50% 30.19 in 10.0 mi NNW 11.5 mph - N/A   Mostly Cloudy
2:53 PM 55.0 °F - 36.0 °F 49% 30.19 in 10.0 mi NNW 10.4 mph - N/A   Mostly Cloudy
3:53 PM 55.0 °F - 35.1 °F 47% 30.20 in 10.0 mi NNW 12.7 mph - N/A   Scattered Clouds
4:53 PM 55.0 °F - 34.0 °F 45% 30.23 in 10.0 mi NNW 9.2 mph - N/A   Clear
5:53 PM 51.1 °F - 33.1 °F 50% 30.27 in 10.0 mi NNW 15.0 mph 27.6 mph N/A   Mostly Cloudy
6:53 PM 46.9 °F - 33.1 °F 59% 30.31 in 10.0 mi NNW 10.4 mph - N/A   Mostly Cloudy
7:53 PM 46.0 °F 40.6 °F 33.1 °F 61% 30.34 in 10.0 mi NW 11.5 mph - N/A   Clear
8:53 PM 45.0 °F 41.2 °F 34.0 °F 65% 30.36 in 10.0 mi NNW 6.9 mph - N/A   Overcast
9:53 PM 44.1 °F 40.1 °F 33.1 °F 65% 30.38 in 10.0 mi NNW 6.9 mph - N/A   Partly Cloudy
10:53 PM 42.1 °F 37.1 °F 33.1 °F 70% 30.39 in 10.0 mi NW 8.1 mph - N/A   Clear
11:53 PM 39.0 °F 35.7 °F 33.1 °F 79% 30.40 in 10.0 mi NNW 4.6 mph - N/A   Clear